Wind_Speed
8 9 9 11 15 13 14 15 13 13 11 11 11 11 12 12 12 11 10 9 8 7 7 5 5 4 4 4 5 5 5 5 4 4 3 3 3 3 4 4 4 4 4 4 4 2 3 3 3 5 7 7 7 9 8 8 8 8 8 9 10 11 11 12 12 12 13 14 16 17 18 18 18 18 18 18 18 17 17 17 17 16 16 16 16
6 8 9 12 17 16 15 14 13 12 11 11 11 11 11 12 12 12 11 10 9 8 8 8 7 6 6 5 5 5 5 5 4 4 4 3 3 3 3 3 4 4 5 6 6 6 5 3 3 5 7 7 8 10 9 7 7 8 9 10 11 11 11 11 12 13 14 14 16 17 17 17 18 18 17 16 16 16 15 14 14 15 16 17 18
6 7 10 14 18 17 15 14 12 11 11 11 11 11 11 12 12 11 11 10 9 8 8 8 7 6 7 6 6 5 5 4 4 3 2 1 1 1 1 1 2 3 6 7 8 6 4 1 2 4 5 6 8 11 11 8 7 8 9 10 10 10 11 11 11 12 13 14 15 17 17 17 17 16 15 14 14 15 14 13 14 16 18 18 19
7 8 11 14 16 16 15 13 11 11 11 11 11 11 11 11 11 11 10 10 9 8 8 7 7 6 6 6 6 5 4 3 3 1 1 1 0 1 1 3 4 6 7 7 7 5 5 3 1 4 6 8 9 9 10 8 7 8 9 9 9 10 10 9 10 11 12 13 14 15 15 15 15 14 13 13 13 14 14 15 16 17 18 18 18
9 9 10 11 13 14 14 12 11 11 11 11 11 11 10 10 10 10 10 9 9 8 8 7 7 7 7 6 6 5 4 3 1 2 2 2 2 4 6 7 10 11 9 8 7 5 6 5 5 7 8 9 7 6 8 8 7 7 7 8 8 9 9 8 9 10 11 12 12 12 12 13 14 14 12 12 13 13 13 15 16 17 17 17 17
11 10 10 11 11 12 13 11 10 11 10 10 10 10 10 9 9 9 9 9 9 9 8 8 9 9 8 7 6 5 3 2 2 3 4 4 5 8 9 10 12 12 10 9 9 9 7 5 7 8 7 8 5 4 6 7 7 6 5 5 6 7 7 7 8 9 11 11 10 9 11 12 13 13 12 12 12 13 14 15 16 16 16 16 16
11 10 10 10 10 11 11 10 10 11 10 10 10 10 9 9 9 9 9 9 9 9 9 9 10 9 9 8 7 5 3 3 4 4 4 5 7 10 10 11 11 10 9 8 10 12 9 6 8 9 7 7 6 5 4 6 6 5 4 3 3 4 5 5 7 9 10 8 7 9 10 11 12 13 12 11 12 13 14 15 15 15 15 15 16
10 9 10 10 10 10 11 11 11 11 10 10 10 10 9 9 9 8 9 9 9 9 9 10 10 10 8 8 7 6 6 6 6 5 3 4 6 8 9 9 9 9 8 9 11 11 9 7 9 12 11 10 8 6 5 5 6 6 4 1 2 2 3 5 8 10 8 5 6 8 9 10 12 13 12 11 12 13 14 15 15 14 15 15 15
10 9 9 10 10 10 11 11 11 10 10 10 10 10 10 9 8 8 8 9 9 9 10 10 10 9 7 8 8 8 8 8 8 5 3 3 5 7 8 9 10 9 8 9 10 10 9 8 9 13 13 12 11 9 6 5 6 6 4 1 1 1 4 6 9 9 5 5 6 7 9 10 11 13 12 11 11 12 13 15 15 14 14 15 15
10 9 9 10 10 10 11 11 11 11 11 11 11 11 11 10 9 8 8 9 9 9 9 9 9 8 8 9 9 9 8 8 7 6 4 3 6 7 7 9 9 8 7 8 9 10 10 9 10 12 13 13 12 11 8 7 6 6 3 2 1 2 6 7 8 6 4 6 7 7 9 10 10 12 13 11 11 12 13 14 14 14 14 15 15
11 11 11 11 11 11 11 12 12 11 12 12 12 11 11 11 10 10 10 10 10 10 9 8 8 7 8 10 11 10 8 7 6 6 5 3 6 5 5 7 7 8 7 7 8 10 9 10 11 11 12 12 11 10 8 8 7 5 2 3 4 5 6 7 6 4 5 6 7 7 9 10 10 12 13 11 11 11 13 14 14 14 14 15 14
11 11 11 12 11 11 12 12 11 11 11 11 11 11 11 11 11 11 12 11 11 11 10 9 8 7 8 10 11 10 8 6 5 5 5 4 5 4 5 7 6 7 7 7 8 8 9 10 12 12 11 11 10 9 7 6 6 5 3 5 6 8 7 6 4 4 6 6 7 8 9 9 11 12 12 11 10 11 13 13 13 14 14 14 14
11 11 10 11 11 10 11 11 11 10 10 10 10 11 11 11 11 12 12 12 12 11 10 9 8 8 9 10 10 9 6 4 4 4 5 5 5 5 5 6 6 6 6 7 7 7 8 9 11 12 12 11 10 8 6 5 4 3 3 4 7 9 7 4 3 4 5 5 6 7 7 9 11 12 12 11 10 11 13 13 13 14 14 14 13
12 11 10 10 10 11 11 12 12 11 11 10 11 11 10 11 11 11 11 11 11 11 10 9 9 8 9 10 9 7 4 2 3 4 5 6 6 6 5 5 6 5 5 6 7 6 6 7 8 10 12 11 10 8 5 4 3 3 2 2 5 6 5 2 3 4 5 5 6 6 7 9 11 11 10 10 10 11 12 13 14 14 14 14 13
12 11 10 10 10 10 11 12 12 12 12 11 11 11 10 10 10 10 10 10 10 10 9 9 9 9 10 9 7 6 4 4 4 5 6 7 6 5 4 5 6 6 5 6 7 7 6 7 7 7 10 11 10 9 7 5 4 3 1 2 4 4 4 3 4 3 4 5 5 5 7 9 10 10 9 9 10 10 11 13 14 15 15 14 13
12 11 11 11 10 10 11 11 12 12 12 11 11 10 10 10 10 10 9 9 9 9 9 8 8 9 9 8 7 6 5 6 6 5 6 6 4 3 4 5 5 5 5 5 6 7 7 8 7 6 8 10 9 9 8 7 5 3 1 1 2 3 4 4 4 2 4 4 5 5 7 8 9 9 9 9 10 10 11 12 14 15 16 15 13
12 12 12 12 11 10 10 10 11 11 11 11 11 10 9 9 10 9 9 9 10 9 9 8 8 8 7 7 7 6 5 6 6 5 5 4 2 2 2 3 4 4 3 4 5 6 6 7 7 6 7 9 10 10 9 8 6 5 2 1 1 4 4 3 3 2 3 4 5 5 7 8 9 9 9 10 10 11 12 12 14 15 16 15 13
12 11 11 11 10 10 10 10 10 10 10 10 10 10 9 9 9 9 9 9 9 9 9 8 7 6 6 6 6 6 5 5 5 4 5 2 1 2 1 1 2 3 2 2 4 6 6 6 6 6 7 8 9 9 9 8 7 6 4 2 1 4 5 4 3 2 3 4 5 5 7 8 8 8 9 10 11 12 12 13 15 16 16 14 13
11 11 11 11 10 9 9 9 9 9 9 9 9 9 9 8 9 9 9 9 9 9 8 8 6 5 5 5 6 6 5 5 5 5 4 3 3 3 1 0 1 1 2 1 2 4 6 6 6 6 7 8 9 9 8 8 7 6 5 4 2 3 5 5 5 3 3 3 4 5 7 7 7 8 8 10 11 12 13 13 15 16 16 14 13
10 11 10 10 10 9 9 9 9 9 9 8 8 8 9 9 8 8 8 7 8 8 8 8 7 6 6 5 6 7 5 5 6 5 3 4 4 3 1 1 1 0 1 1 1 2 4 6 7 6 7 8 8 8 7 7 7 6 6 5 4 3 5 6 5 3 2 3 3 5 6 6 8 8 8 10 12 12 13 14 16 16 16 14 13
9 10 10 10 9 10 9 9 9 9 9 8 9 9 10 10 8 8 7 7 7 7 8 8 8 7 7 5 5 5 3 4 4 4 3 4 3 2 2 1 1 1 2 1 2 2 2 4 7 7 7 7 7 6 4 5 5 6 6 5 4 4 5 6 5 3 2 3 3 5 6 7 8 8 8 10 12 13 14 15 17 17 16 14 14
8 9 9 9 8 9 10 9 9 9 9 9 9 9 10 9 8 8 8 7 7 8 8 8 8 7 6 5 4 3 2 2 2 2 2 2 2 1 1 1 1 2 2 2 3 3 3 2 4 6 6 6 6 4 3 4 5 6 6 5 4 5 6 5 5 4 4 4 4 5 7 8 8 8 9 11 12 13 14 16 17 18 17 15 14
8 8 8 8 8 8 9 9 9 9 9 9 9 9 9 9 9 8 8 7 7 8 8 8 7 6 6 5 4 3 2 2 2 2 2 1 2 2 1 1 1 2 1 2 1 2 2 2 2 4 4 5 5 4 4 4 5 5 5 5 4 5 5 5 6 6 6 5 4 6 7 8 7 8 10 11 12 14 14 16 17 18 17 16 15
8 8 9 9 9 8 9 9 9 9 9 9 9 9 9 8 9 8 8 7 7 7 7 7 7 6 6 5 4 4 3 2 3 3 3 2 2 3 2 2 2 3 3 1 2 2 2 3 3 2 2 3 4 5 5 5 6 6 5 5 4 4 5 6 7 6 6 6 6 8 8 8 8 8 10 11 13 15 15 16 17 18 18 16 16
8 9 10 9 9 8 8 8 9 9 9 8 9 9 9 8 8 8 8 7 7 7 6 6 7 7 7 6 5 5 4 3 3 3 2 2 2 3 2 2 1 3 4 2 3 2 2 3 3 3 3 4 4 5 5 6 7 7 6 5 4 4 5 6 6 6 6 6 8 9 8 9 9 8 9 9 12 15 15 16 18 18 18 17 16
8 9 9 9 8 7 7 7 8 10 10 9 9 9 9 9 9 8 8 7 7 7 6 7 7 8 7 7 6 5 5 4 4 4 3 2 2 2 2 2 2 2 3 3 3 3 3 3 3 4 4 4 4 4 5 6 6 7 7 6 5 5 5 6 6 6 6 7 9 9 9 10 9 9 10 9 11 14 15 17 18 18 18 16 16
8 8 8 7 6 6 6 6 7 8 10 10 9 9 9 9 8 8 8 8 8 8 7 7 7 8 8 8 7 6 5 4 5 5 5 4 3 3 3 2 3 3 3 3 3 3 3 3 4 4 4 4 5 5 5 5 6 6 7 6 6 6 6 6 6 6 6 7 9 9 10 11 10 10 11 10 10 13 16 17 18 19 19 17 16
7 7 6 6 5 5 6 7 8 8 9 9 10 10 10 9 8 8 9 8 8 8 8 7 7 7 8 8 8 7 6 5 5 6 6 5 4 4 3 3 3 3 3 3 3 3 3 3 4 4 4 4 4 5 5 5 5 5 6 6 6 6 7 7 7 7 7 8 9 10 12 12 11 11 11 10 10 13 16 17 19 20 20 19 17
7 7 6 6 5 5 6 7 8 8 9 9 10 10 10 9 9 9 8 8 7 7 7 6 6 6 7 8 8 8 7 6 6 6 6 6 6 4 3 3 2 2 3 3 3 3 3 3 3 3 4 4 4 5 5 5 5 5 6 6 6 6 7 7 8 8 7 7 9 9 12 13 11 11 11 9 10 12 15 17 19 20 20 19 18
7 7 7 6 5 5 6 8 8 8 9 9 10 10 9 10 9 9 8 7 7 6 6 6 6 6 7 8 8 7 7 7 8 7 7 7 6 5 4 3 2 2 2 3 3 3 3 4 3 4 4 4 4 4 5 6 6 6 6 6 6 6 7 7 7 8 7 7 8 8 12 13 11 11 10 9 10 11 14 18 20 20 20 20 19
7 7 7 6 5 5 6 7 9 9 8 9 9 9 9 9 9 9 9 8 7 6 6 6 6 6 7 8 7 7 7 7 8 8 7 7 7 6 5 4 3 2 2 2 3 4 4 4 4 4 5 5 5 5 5 6 6 6 6 6 6 6 7 7 7 8 7 7 7 8 10 13 12 11 10 9 10 11 15 19 20 20 20 20 20
6 6 6 6 6 6 6 8 9 9 9 9 9 9 9 9 9 10 10 9 8 7 6 6 6 6 7 7 7 7 7 7 7 7 7 7 7 7 6 5 4 3 2 2 3 4 4 5 4 4 5 6 6 5 5 5 6 6 6 6 6 7 7 7 8 8 7 7 8 8 11 14 13 12 11 10 10 11 14 18 20 20 20 21 20
6 6 6 7 7 6 7 8 8 9 9 9 8 8 8 8 9 10 10 10 10 9 7 6 6 6 6 7 8 7 7 7 7 8 8 7 7 7 7 6 5 4 3 2 2 2 3 5 4 5 5 6 6 5 5 5 5 5 6 6 7 7 7 8 8 7 7 7 7 9 12 14 13 13 12 11 11 11 14 18 20 20 20 21 20
6 7 7 7 6 6 6 7 8 9 9 8 8 8 7 7 8 9 9 9 10 10 9 7 7 6 6 7 8 8 7 8 8 8 8 7 7 6 6 6 5 4 3 3 2 1 2 4 4 5 5 5 5 4 5 5 5 6 6 6 7 7 7 7 8 7 7 7 7 8 11 13 14 14 14 13 12 12 13 17 20 20 20 21 20
6 7 7 7 7 6 6 7 7 8 8 7 7 7 6 6 6 8 8 9 10 11 10 8 8 7 7 7 9 8 7 8 8 8 7 7 6 5 6 5 5 5 3 2 3 1 1 3 4 5 5 5 5 5 5 6 6 6 6 6 7 7 7 7 6 7 7 7 7 8 10 11 14 17 16 15 14 13 13 16 20 20 20 21 20
6 7 8 8 7 7 7 7 8 7 7 7 7 6 5 5 5 6 8 9 10 10 10 9 8 8 8 8 10 9 8 8 7 7 7 6 6 5 5 7 6 5 3 3 4 3 2 2 3 4 5 5 5 6 6 6 7 6 6 6 7 7 7 6 6 7 7 7 6 8 9 10 15 17 17 15 14 15 14 15 19 20 20 20 20
7 7 8 8 8 8 8 8 7 7 6 6 6 5 4 3 4 5 7 9 10 11 10 10 9 9 9 9 10 10 9 8 6 5 6 5 5 5 6 7 7 6 4 4 4 5 5 4 3 4 5 5 5 5 6 7 7 7 7 7 8 7 7 7 6 6 7 7 7 8 9 10 13 16 15 14 14 15 15 15 19 20 20 21 21
8 7 8 7 8 8 8 7 7 6 6 5 5 4 4 3 3 5 6 7 9 11 10 11 10 9 9 10 10 10 10 9 6 4 4 4 4 4 5 6 7 7 6 5 5 5 5 5 4 4 4 4 4 5 6 7 8 8 8 8 8 8 8 8 6 7 6 7 7 7 9 10 11 13 15 14 13 15 16 16 18 18 19 20 20
10 8 7 6 7 8 8 7 7 6 5 5 5 4 3 3 3 5 7 8 9 10 11 11 10 10 10 10 10 11 11 9 7 5 4 4 4 4 6 6 6 7 6 5 5 6 6 7 6 5 5 4 4 4 5 6 8 8 9 9 8 8 10 10 8 8 7 6 6 6 8 9 9 11 14 13 11 14 17 16 16 18 18 20 19
12 9 8 7 7 8 9 8 7 7 6 5 4 2 2 3 4 5 7 8 8 9 10 11 11 10 10 9 9 10 11 10 8 6 4 5 5 5 6 7 6 7 6 6 6 7 7 7 7 7 6 4 3 3 4 6 7 8 9 9 8 9 10 10 11 10 8 6 6 6 7 8 9 11 13 13 11 12 15 15 15 15 15 18 20
12 12 13 12 10 10 9 8 8 7 6 4 2 0 1 2 4 5 6 7 8 8 9 10 11 10 9 9 9 9 10 10 8 7 5 5 5 5 6 7 6 6 7 6 6 6 6 7 7 7 6 5 4 3 4 5 5 6 7 7 7 8 9 9 11 12 9 6 6 7 8 8 9 10 13 14 12 11 12 14 14 13 13 14 18
13 15 16 14 13 13 10 8 7 6 6 3 2 1 1 2 3 5 5 6 7 7 8 9 10 10 9 9 9 9 9 10 9 7 5 5 5 5 6 7 6 6 6 6 6 7 7 7 8 6 6 6 4 3 5 4 3 5 6 6 5 5 5 7 10 11 9 6 6 6 7 9 10 10 11 12 12 11 11 13 14 15 15 16 18
15 17 17 14 14 14 12 9 7 6 6 4 3 2 2 2 3 3 4 5 5 5 7 9 9 10 9 8 8 9 9 9 9 8 6 6 5 6 6 6 6 6 7 7 7 7 7 7 8 7 7 6 4 3 4 4 4 5 6 5 3 2 3 3 5 8 7 7 7 6 8 10 9 9 11 11 12 13 12 12 14 16 17 18 18
15 16 16 15 14 14 13 10 7 6 7 6 4 3 3 2 1 1 1 3 4 3 6 8 8 9 10 9 8 9 8 8 8 8 8 7 6 6 7 7 7 7 7 6 7 8 8 8 7 7 8 8 5 3 3 3 4 4 4 4 3 3 3 1 3 6 6 6 7 7 9 10 8 8 10 12 13 15 14 13 13 14 16 17 16
14 15 15 15 13 13 13 11 7 6 8 7 6 5 3 3 2 1 1 1 3 4 6 7 7 8 10 9 9 9 8 8 8 8 7 7 7 7 7 7 7 8 7 7 7 8 7 8 8 7 8 9 8 7 3 2 3 3 4 5 4 3 2 3 5 5 4 4 5 7 8 9 8 8 10 13 14 15 15 15 13 13 13 14 14
12 13 13 14 13 12 12 11 8 6 8 8 8 6 4 4 3 2 2 2 3 5 6 6 6 8 9 9 9 8 8 8 7 7 6 7 7 7 8 7 7 7 7 7 8 8 7 8 9 8 8 9 10 9 5 4 3 3 3 4 4 3 4 5 4 3 4 3 2 4 6 8 9 9 11 13 15 15 15 15 15 13 12 12 13
10 10 11 12 13 12 12 11 9 7 8 9 8 7 5 4 4 4 3 3 3 4 5 4 5 7 8 8 8 8 8 8 7 6 5 6 6 6 7 7 7 7 7 8 8 8 8 8 8 9 9 9 10 9 7 7 5 3 4 5 4 4 6 6 4 3 5 4 1 3 3 5 7 9 12 14 14 15 16 17 17 14 12 12 12
8 9 10 11 12 13 12 11 10 8 8 9 9 8 6 5 5 5 3 3 3 3 3 4 4 6 8 8 8 9 9 8 7 6 5 5 6 6 6 6 7 7 7 8 8 8 8 8 8 8 8 8 10 10 9 8 7 7 8 7 5 5 6 6 7 6 5 5 4 3 3 4 5 7 10 13 14 15 16 16 15 13 13 12 12
8 9 9 10 11 12 12 12 11 10 9 10 10 9 8 6 6 6 5 4 3 3 2 3 4 5 8 8 8 9 9 8 7 6 5 5 5 5 5 6 7 7 8 8 8 8 8 8 8 8 8 8 8 9 9 8 7 7 9 7 6 5 5 6 7 6 5 5 5 3 3 6 8 7 8 10 12 13 13 12 12 13 13 13 12
7 8 9 9 9 10 11 12 12 11 11 11 10 9 9 8 7 7 6 4 4 3 2 2 3 4 7 8 8 9 9 9 8 6 6 6 4 4 4 5 7 8 8 9 9 9 9 9 9 8 8 8 7 8 8 9 8 7 8 8 7 5 5 5 6 5 5 5 5 4 3 5 7 9 10 9 8 9 10 10 10 12 13 12 12
7 7 8 8 9 9 10 11 12 11 11 11 11 10 9 9 8 8 7 5 4 4 3 2 3 4 6 8 9 9 9 8 8 7 6 6 5 4 4 4 6 7 8 9 9 9 9 9 8 8 7 7 7 7 7 8 9 8 8 9 7 6 6 5 5 6 6 6 6 4 4 6 7 10 14 11 8 7 7 8 9 10 12 12 12
Wind_Direction
57 60 71 91 86 87 87 82 82 80 81 78 77 76 72 72 69 67 66 62 57 51 50 47 44 37 44 48 50 49 50 55 48 44 30 28 14 359 351 339 334 324 311 308 316 344 41 61 93 122 141 137 122 106 98 97 99 104 110 114 114 113 111 110 112 113 114 115 115 113 111 111 110 111 112 112 113 114 113 110 111 110 109 114 114
80 73 81 94 93 93 89 84 79 78 78 77 75 73 70 67 66 64 61 59 59 56 52 49 49 47 46 48 53 51 52 48 38 35 26 27 12 6 0 354 348 341 344 352 10 28 43 59 110 148 161 150 134 118 107 104 104 108 110 108 107 107 108 111 115 116 116 116 116 113 112 112 112 113 113 114 115 115 112 110 111 109 111 115 114
93 85 90 95 98 96 91 89 81 80 77 76 73 69 66 64 64 63 62 60 59 59 57 54 53 54 53 55 59 60 58 50 45 38 36 56 35 36 2 6 338 351 16 18 23 27 36 55 140 146 151 118 110 111 111 112 111 111 108 107 108 110 110 113 119 119 120 120 119 115 114 113 112 112 113 114 116 115 113 114 113 112 115 116 117
91 92 95 92 94 93 90 87 82 81 78 78 75 70 67 64 64 62 62 61 61 60 61 58 55 55 54 55 56 57 56 51 51 24 249 204 191 71 35 25 9 18 30 33 41 32 23 7 59 101 105 91 87 97 112 118 116 116 113 113 115 115 115 120 122 122 124 124 120 117 116 113 111 111 112 115 118 118 118 120 119 117 118 117 118
93 98 97 88 85 87 85 82 81 79 77 77 75 73 69 66 63 60 60 59 60 59 60 56 50 48 46 49 45 40 36 20 355 303 323 349 357 34 38 36 29 30 31 37 54 48 33 23 48 85 92 85 88 105 119 124 121 119 116 118 120 120 124 132 130 130 131 125 120 118 119 117 115 113 114 116 119 120 119 121 120 118 118 118 117
96 96 90 84 80 81 82 80 80 77 76 74 72 70 68 65 60 59 60 59 57 54 55 52 50 46 43 46 44 39 24 348 315 328 9 21 29 39 36 37 35 35 35 34 47 53 52 56 72 82 84 82 90 106 119 123 120 114 111 115 124 130 137 146 144 144 137 125 124 124 123 122 118 116 117 118 120 122 120 119 119 118 118 117 116
100 98 89 84 78 79 79 80 79 75 73 69 67 65 61 59 57 58 58 57 56 54 53 52 52 49 46 43 43 37 18 5 356 357 23 40 49 52 44 42 44 46 55 53 57 61 58 77 104 107 109 115 120 119 118 111 108 100 89 99 121 139 157 166 158 150 140 131 133 129 124 122 119 118 120 120 123 125 124 122 121 121 120 119 117
99 97 95 89 82 84 81 77 75 72 70 68 66 63 60 56 53 54 56 57 55 54 52 51 51 48 44 40 40 33 22 25 25 18 32 48 56 62 54 51 56 65 77 75 77 84 83 92 120 131 134 141 142 141 137 113 112 110 102 129 138 159 202 193 164 146 139 146 143 129 123 121 118 119 121 123 127 129 130 129 127 125 124 124 119
98 95 94 90 83 86 84 78 76 74 74 73 69 64 60 57 55 54 54 57 55 53 50 48 47 42 37 33 33 31 28 30 35 37 40 58 64 64 57 54 61 70 77 78 85 93 97 104 129 142 144 148 147 150 152 130 125 118 118 204 172 202 240 199 159 144 144 154 141 126 123 122 120 120 123 126 130 133 134 131 128 128 127 126 121
100 93 85 83 85 86 84 81 79 79 77 72 65 59 55 54 56 58 57 54 52 51 49 47 43 34 30 30 27 29 31 32 39 45 49 80 75 72 66 60 69 81 84 85 91 88 92 112 135 148 151 153 150 150 149 132 122 109 115 253 243 229 236 189 152 149 164 154 136 125 124 123 120 121 125 129 134 136 136 134 133 132 129 126 124
96 90 83 79 84 86 85 81 78 75 71 65 59 55 52 52 53 57 59 54 48 46 45 43 37 24 27 32 30 29 29 29 36 45 50 86 86 93 92 80 83 94 98 93 92 92 96 112 130 146 150 148 144 142 140 128 122 115 147 240 237 235 228 186 159 167 169 152 135 131 131 124 117 123 128 133 139 139 139 140 139 135 131 128 126
94 90 88 81 78 80 81 78 74 70 62 56 54 51 49 49 48 49 51 50 46 43 40 36 31 19 23 33 32 30 31 26 30 49 55 79 97 113 102 92 89 95 106 100 98 106 106 111 127 142 146 144 141 135 131 128 128 132 174 229 234 238 225 192 195 190 162 145 136 138 137 122 120 128 132 136 141 141 141 140 138 134 131 130 128
90 87 84 79 73 70 69 67 62 56 51 47 45 45 44 44 44 43 43 44 42 40 39 34 29 21 23 32 31 29 34 25 24 52 64 76 88 91 87 91 90 93 108 111 112 115 109 110 128 143 146 145 142 133 133 138 129 131 168 218 223 230 217 198 226 195 155 141 137 139 133 120 126 136 136 138 141 143 143 139 137 135 133 132 130
84 81 78 76 71 63 58 56 52 45 42 37 36 38 38 38 39 39 39 41 39 36 35 32 29 27 28 31 32 30 33 30 26 39 58 72 77 81 95 106 102 100 114 128 126 120 116 116 130 146 148 148 148 143 154 164 143 129 150 201 203 212 199 198 234 182 147 138 137 137 129 126 133 139 139 142 144 146 148 143 140 139 137 134 132
79 77 75 73 70 62 53 49 45 42 37 33 32 31 32 31 32 35 37 37 35 32 29 29 30 31 31 32 33 27 23 31 33 29 44 67 76 77 101 115 111 115 129 138 136 139 136 127 131 152 156 154 157 158 174 185 166 145 133 184 190 194 181 214 240 171 143 136 136 137 129 134 140 142 144 146 149 150 151 147 144 145 141 137 135
74 72 67 63 61 57 49 43 38 35 31 29 29 28 29 28 28 30 30 32 30 26 23 23 26 27 26 28 31 26 27 37 39 37 48 73 91 77 91 110 110 120 138 139 142 149 146 139 137 158 169 165 168 170 180 190 183 170 148 179 203 210 186 211 248 179 148 139 140 144 133 142 147 147 149 147 153 156 156 151 149 150 145 140 140
68 65 62 58 54 52 49 43 37 33 29 26 25 27 28 24 24 23 22 27 29 25 22 20 20 20 19 23 29 27 31 44 47 50 61 79 122 93 79 100 104 116 131 138 146 152 152 150 147 165 183 177 179 181 184 191 192 184 173 178 230 236 205 194 252 220 143 141 151 150 139 147 152 155 158 155 157 159 161 158 154 153 147 142 141
64 61 60 57 54 52 50 44 38 34 32 28 25 22 22 20 17 18 17 24 30 30 27 26 24 22 23 27 33 31 26 42 50 56 71 79 131 105 75 57 84 120 116 120 148 163 165 154 154 171 186 182 184 189 189 191 196 191 190 204 226 252 229 195 237 222 140 160 164 155 156 157 157 164 166 163 162 162 165 162 158 156 150 146 144
59 57 54 53 52 51 49 44 38 32 31 32 31 21 17 17 11 13 16 22 31 34 34 33 31 28 28 33 41 38 22 28 39 46 69 77 86 91 131 266 11 114 116 88 138 173 170 159 160 169 181 182 181 189 192 192 197 199 199 211 220 258 241 219 238 214 153 188 171 167 186 177 166 172 171 168 167 166 169 166 162 159 153 150 149
55 52 49 48 47 47 48 43 36 31 30 30 35 29 23 25 16 12 13 20 27 29 32 31 30 26 23 26 39 41 22 19 29 28 42 46 63 89 151 183 53 94 155 158 197 197 172 164 166 166 180 185 183 185 192 198 202 211 211 216 227 250 246 240 251 229 183 209 178 181 197 184 175 179 174 174 174 170 172 170 165 162 157 154 151
61 55 49 48 44 42 42 40 34 29 33 31 34 30 28 31 22 17 15 16 18 21 27 26 25 19 15 14 27 42 21 16 27 19 25 23 24 73 100 95 114 182 202 190 214 230 207 180 175 175 183 192 191 182 197 217 218 226 222 222 231 240 244 249 255 244 237 222 193 198 196 181 178 182 177 178 178 175 177 174 169 166 160 157 152
72 67 56 49 44 42 39 40 35 30 32 30 32 25 22 26 21 23 21 19 21 24 29 27 24 15 13 16 19 39 33 32 44 29 30 25 352 8 76 41 144 201 207 173 191 219 246 229 185 184 191 201 199 187 224 244 239 241 234 224 227 239 247 255 251 240 243 225 208 215 198 181 180 183 180 179 181 179 179 176 173 168 163 160 155
75 73 63 52 47 48 43 42 36 31 31 26 27 21 18 20 19 24 23 23 26 29 31 29 25 16 16 24 23 31 46 35 29 27 21 18 337 322 315 315 290 258 228 142 176 218 239 277 233 201 204 213 210 208 223 230 235 241 238 228 223 242 253 257 250 238 236 230 218 224 203 181 182 185 181 180 182 182 181 179 176 171 165 163 158
74 73 67 57 53 52 47 44 38 34 32 29 28 24 22 22 21 25 24 23 24 27 30 28 26 20 20 23 24 25 31 19 358 4 0 348 325 325 330 332 321 303 303 353 328 285 247 282 277 256 235 224 224 223 222 225 229 229 230 230 225 240 255 254 250 241 238 235 226 229 208 186 187 188 186 182 179 184 185 181 179 176 170 166 162
77 75 69 62 56 53 49 45 42 40 37 35 34 31 29 28 26 25 26 24 21 21 21 25 25 21 21 15 13 14 15 13 0 353 338 326 308 309 315 332 332 306 312 316 307 300 277 273 273 267 245 232 233 228 226 230 235 234 234 236 235 236 248 252 251 247 242 232 229 230 210 194 192 188 190 185 180 186 187 184 182 179 173 169 166
81 77 73 69 61 54 51 48 46 45 45 43 40 38 37 36 33 28 26 23 20 20 18 23 25 21 19 14 10 6 6 6 0 353 341 340 332 307 300 321 333 320 324 316 303 304 294 271 263 257 247 244 244 237 232 233 239 244 243 242 242 237 241 251 252 252 247 232 232 231 211 201 196 188 190 190 187 188 187 186 184 179 176 174 171
86 84 82 78 71 62 56 57 57 50 49 51 50 48 46 45 42 36 30 23 19 21 20 19 20 19 17 18 13 3 2 5 2 355 346 344 352 341 329 339 339 334 334 325 314 303 297 286 273 264 257 256 252 251 246 240 242 247 250 249 248 246 247 254 252 249 250 237 234 229 211 204 200 191 189 190 190 191 188 186 184 180 177 177 177
99 98 96 91 87 75 68 68 66 61 58 57 58 56 53 51 47 42 35 27 21 17 16 14 14 15 14 16 11 3 2 5 7 359 348 346 355 2 352 350 345 332 325 319 310 302 302 297 285 277 276 274 263 260 260 254 249 248 251 250 249 250 250 253 253 250 251 241 233 221 209 206 200 194 192 190 190 194 193 186 185 182 177 178 180
120 117 111 105 100 87 78 77 72 68 68 64 63 60 57 54 48 43 36 27 22 15 9 8 10 11 11 10 4 2 357 360 6 355 346 342 346 1 0 351 350 338 320 306 298 299 302 299 293 291 289 285 274 267 267 263 257 253 252 250 247 247 246 247 249 250 252 245 232 215 206 207 200 197 196 191 191 198 196 189 187 184 179 178 180
137 131 121 113 106 97 85 83 81 76 74 71 68 65 59 55 48 40 31 21 15 7 2 4 6 6 7 3 1 1 353 353 355 345 338 334 332 342 350 351 356 346 328 306 297 295 294 298 297 292 287 278 274 272 270 267 263 260 257 257 254 248 248 247 249 252 255 249 235 214 204 204 199 199 199 191 192 198 198 193 190 187 182 179 179
144 135 123 117 111 104 95 89 87 85 82 78 73 70 64 58 52 42 33 23 10 1 358 359 2 6 6 1 0 0 353 349 347 341 334 328 324 326 331 339 351 353 340 319 308 307 298 298 300 296 290 278 270 267 270 271 268 268 264 263 260 255 254 253 256 255 254 250 238 219 200 200 199 197 199 196 194 200 204 199 192 188 184 182 180
153 139 127 124 121 111 103 99 95 93 89 84 78 73 67 61 54 45 37 29 21 13 6 2 1 3 3 359 357 355 353 348 344 340 330 323 322 319 317 321 337 349 346 338 323 318 302 295 299 296 291 285 278 270 270 272 270 273 271 267 261 256 254 253 256 253 251 246 235 218 200 202 202 194 197 203 201 204 206 201 193 189 186 184 182
158 146 139 134 129 119 109 105 102 99 94 89 83 74 67 60 52 43 37 33 29 26 21 15 9 4 2 359 354 348 346 343 341 336 326 320 320 314 308 310 325 336 341 336 333 327 306 299 299 295 294 291 285 280 277 275 275 277 275 273 264 255 249 247 247 246 244 237 229 218 204 203 200 193 197 203 205 208 205 199 194 190 187 186 186
163 157 152 147 138 129 120 113 111 106 101 98 90 80 70 60 51 43 37 35 33 32 28 23 18 12 7 2 353 344 339 335 333 333 327 322 320 313 306 309 319 325 331 320 312 353 324 314 311 305 303 297 292 293 288 281 280 279 278 275 267 257 246 241 240 238 236 226 222 217 206 199 196 196 196 200 206 209 207 202 197 191 188 188 189
174 167 161 158 148 137 129 125 126 120 115 112 102 90 78 66 55 45 40 37 36 35 32 27 23 18 13 7 357 347 337 330 326 328 326 321 319 315 312 322 325 320 335 335 321 331 337 329 331 323 314 309 304 301 294 286 284 281 280 276 269 262 250 241 238 236 233 221 215 212 207 198 194 197 195 197 203 205 210 205 196 193 192 189 189
190 177 173 168 159 148 139 139 139 135 130 123 112 100 90 79 63 52 46 41 38 37 35 30 26 23 17 9 0 353 343 333 323 322 322 317 320 324 329 339 336 323 335 350 342 347 0 357 342 334 325 321 314 306 296 287 285 280 278 277 273 269 258 248 242 238 232 221 212 207 209 198 191 194 194 197 201 203 206 201 195 196 198 193 190
207 195 187 178 169 160 151 149 145 144 142 132 123 111 103 98 75 60 52 44 39 37 35 33 29 26 19 10 4 1 357 347 331 324 324 319 322 330 340 344 338 333 338 340 341 351 2 6 349 338 333 329 319 311 301 290 289 286 281 276 273 271 263 252 243 241 233 222 216 208 210 203 192 191 193 196 199 203 201 193 194 198 200 195 191
218 215 204 191 179 170 166 162 156 159 154 144 138 125 121 115 86 64 52 45 40 37 33 32 29 26 20 14 11 10 8 4 355 342 330 323 330 337 348 347 337 339 343 336 333 337 348 353 342 334 334 332 324 315 303 292 292 290 285 280 278 277 272 265 251 242 237 226 218 210 209 205 197 194 198 199 198 197 196 193 191 193 197 196 193
214 216 212 209 199 184 179 176 173 174 165 156 156 143 131 99 67 57 49 44 40 37 33 30 27 25 21 16 17 16 13 13 11 3 350 338 348 358 358 352 341 344 344 335 333 335 339 337 329 325 326 329 327 317 305 297 295 292 289 289 288 281 275 274 265 251 241 237 225 215 214 208 203 201 200 201 202 195 190 192 192 189 195 197 196
207 203 201 206 216 206 191 188 189 185 182 178 173 159 113 71 50 46 43 40 36 35 33 28 26 24 21 18 17 15 14 17 16 10 2 346 351 2 1 354 349 353 355 348 342 339 338 328 319 320 319 320 329 326 320 309 299 294 289 287 287 283 281 277 269 259 244 241 234 219 216 210 211 213 205 196 202 204 189 190 192 188 194 197 197
204 197 197 198 209 219 210 199 199 196 202 204 186 100 48 57 47 43 40 38 33 33 33 28 27 24 21 19 16 14 15 17 18 13 5 352 357 8 4 353 345 349 353 355 353 348 347 336 324 315 309 314 328 347 344 320 299 295 291 287 287 282 286 285 271 264 251 242 241 227 217 215 220 221 212 198 201 216 203 194 193 188 192 192 194
204 201 205 205 204 215 218 212 211 209 215 218 199 183 62 50 48 44 36 38 36 35 35 29 28 26 22 19 18 18 16 16 17 13 8 2 5 12 6 353 346 348 349 357 5 1 3 357 343 328 310 310 321 356 1 341 319 314 303 292 289 276 278 277 267 265 259 248 249 241 226 223 225 219 210 201 206 223 218 206 201 196 194 191 192
209 207 212 212 206 212 217 216 221 220 216 210 205 201 147 93 68 59 34 31 36 43 39 27 26 27 24 20 17 18 14 15 16 13 15 10 7 15 13 4 2 4 356 1 12 8 9 7 358 347 331 315 308 352 11 359 343 316 296 283 296 315 287 264 272 279 267 253 254 249 240 230 223 217 209 208 216 221 219 216 211 204 199 196 195
211 212 213 212 211 215 215 216 225 224 210 202 206 204 180 167 114 93 50 26 23 38 37 27 26 28 26 22 17 15 13 14 12 12 16 16 19 27 19 7 6 9 0 4 14 10 9 10 6 359 346 333 321 341 6 357 349 319 288 283 300 300 284 327 348 305 270 252 251 245 246 240 222 211 208 213 223 221 216 217 217 210 204 200 198
210 213 215 214 216 217 214 218 230 225 210 204 206 204 199 206 205 216 234 347 355 21 34 30 27 26 26 22 16 13 12 12 8 9 14 16 23 28 20 8 7 12 4 7 16 9 9 12 8 2 357 348 332 332 349 348 332 316 294 285 286 283 293 353 351 301 267 259 254 246 245 242 233 217 207 212 221 220 215 218 221 217 209 205 202
214 215 216 217 219 220 218 221 230 225 212 208 207 205 218 230 236 269 298 314 340 17 34 31 24 21 22 21 16 11 11 11 7 9 10 9 15 21 21 14 13 17 7 8 14 6 7 12 9 3 357 353 339 332 351 357 309 290 305 294 288 294 298 322 334 300 290 291 278 266 247 235 233 223 212 213 215 215 216 223 225 216 211 212 208
215 214 215 218 221 223 222 222 227 224 212 208 206 209 220 230 240 266 293 296 319 4 29 29 22 18 17 20 19 12 9 8 5 6 3 1 11 19 23 20 20 23 16 14 13 3 4 7 6 4 356 353 349 341 350 0 341 312 315 300 291 286 281 293 299 297 303 295 318 327 284 244 233 225 218 214 212 214 216 222 228 219 211 215 215
212 209 212 217 220 223 223 223 225 219 212 209 208 213 219 222 233 247 257 256 276 318 8 16 17 18 15 18 21 15 11 8 3 3 2 2 11 19 25 24 20 19 19 19 12 3 3 0 357 1 359 354 354 349 347 356 359 349 330 302 281 277 275 283 281 280 292 290 299 317 309 300 273 245 230 219 213 218 220 221 226 224 216 216 217
208 210 213 216 217 221 221 222 222 220 218 215 214 216 217 222 233 242 249 246 253 272 320 359 4 12 11 13 20 20 16 11 6 1 0 5 17 25 28 25 17 14 16 12 4 358 357 355 352 353 357 353 352 353 349 351 351 347 342 316 291 286 283 282 275 270 273 278 290 303 311 319 310 282 248 226 215 217 223 223 221 220 217 216 217
205 211 215 216 214 217 220 221 223 223 222 221 221 221 220 227 239 245 252 252 248 253 275 336 348 354 4 10 15 19 19 15 8 1 357 0 17 31 28 24 16 7 3 356 352 351 346 348 350 347 351 350 346 346 346 350 344 335 340 329 308 302 298 288 278 278 274 262 267 285 304 298 293 294 285 261 234 223 225 228 226 224 222 220 219
198 207 212 214 214 217 220 224 226 225 224 224 226 226 225 233 244 248 254 256 252 249 253 298 329 334 355 7 9 13 17 16 10 1 352 352 6 32 35 26 16 1 352 348 347 348 343 342 345 343 344 342 339 336 333 340 340 332 334 332 318 306 299 300 305 302 292 275 274 285 280 248 244 279 289 277 254 244 234 231 233 233 231 228 225
Height
821 821 822 821 821 821 822 823 824 824 824 825 824 824 823 823 822 822 821 821 820 820 819 819 820 820 820 820 819 819 818 818 817 817 816 816 815 815 815 815 814 814 814 814 814 815 817 818 818 816 813 813 812 813 814 814 815 814 813 813 813 813 813 814 814 814 814 814 813 813 812 812 812 812 813 813 814 815 816 816 816 817 818 819 819
821 821 822 821 821 821 823 823 824 824 824 825 825 825 824 824 823 822 821 821 821 820 820 820 821 821 821 820 820 819 819 818 818 817 816 816 815 815 815 814 814 814 814 814 815 816 818 819 818 815 813 812 811 810 812 815 816 816 815 814 815 815 815 815 816 816 816 815 815 814 814 814 813 814 815 815 816 816 817 818 818 818 819 820 820
821 822 822 822 822 822 823 823 824 824 825 825 825 825 825 825 823 823 822 822 822 821 821 821 822 822 821 820 820 819 818 818 817 817 816 815 814 813 813 813 812 813 813 814 814 816 818 817 817 816 816 815 814 812 811 815 817 817 816 816 816 816 816 817 817 817 817 816 816 815 815 815 815 815 816 816 817 817 818 819 819 819 820 821 821
821 822 822 823 823 823 823 824 824 825 825 826 826 826 826 826 825 824 823 823 823 823 822 822 822 822 822 821 820 819 818 818 817 816 815 814 814 813 813 813 813 813 813 813 813 815 817 817 818 819 819 818 818 816 814 816 818 818 818 817 817 817 817 818 818 818 818 817 817 816 816 816 816 817 817 818 818 818 819 819 820 820 821 822 822
822 822 823 823 824 824 824 824 825 825 826 826 827 827 827 827 826 826 824 824 824 824 823 823 823 822 822 821 820 819 819 818 817 816 815 816 815 815 815 814 815 815 815 814 813 815 816 818 821 821 821 820 820 819 818 818 819 820 819 819 819 818 818 819 819 819 819 818 818 817 817 817 817 818 818 819 819 819 820 820 821 821 822 823 824
823 823 823 824 825 825 825 826 826 826 827 827 828 828 828 827 827 826 826 825 825 824 824 824 823 823 822 821 820 819 819 818 817 817 817 817 817 816 816 816 816 817 817 816 816 816 817 819 823 824 823 822 822 821 820 819 820 821 821 821 820 820 820 820 819 819 819 818 818 819 819 818 818 819 819 820 820 820 821 821 822 822 823 824 824
823 823 824 825 826 826 826 827 827 827 827 828 828 828 828 828 827 827 826 826 825 825 825 824 824 823 822 821 821 820 819 818 818 818 818 818 817 816 815 815 816 817 818 817 817 818 819 820 822 824 824 823 823 822 822 821 821 822 824 823 823 822 821 821 820 819 819 818 819 819 819 819 819 819 820 820 821 821 821 822 823 823 824 825 825
823 824 825 825 826 827 827 827 827 828 828 829 829 829 828 828 828 827 827 826 826 826 825 825 824 823 822 822 821 820 819 819 819 818 818 817 816 815 814 814 814 815 816 817 817 818 819 820 820 820 820 821 822 821 822 822 821 822 824 825 824 824 824 822 820 819 818 819 819 819 819 819 820 820 820 821 822 822 822 822 823 824 824 825 825
825 825 825 826 828 828 828 827 828 829 829 829 829 829 829 829 829 828 828 827 826 826 826 825 824 823 822 822 821 820 820 819 819 818 818 817 817 816 815 815 815 816 817 817 818 818 818 817 818 818 818 818 819 819 821 822 821 821 823 825 825 825 826 823 821 819 818 819 819 819 819 820 820 820 821 822 822 822 822 823 823 824 825 825 826
826 826 827 828 829 829 828 828 829 830 830 830 829 829 829 829 829 829 828 827 827 826 826 825 824 823 822 822 821 821 820 820 819 818 817 816 816 816 816 817 817 817 818 819 818 818 818 817 817 817 817 817 817 818 819 821 821 820 823 826 825 826 827 824 821 819 819 819 819 819 819 819 820 820 821 822 823 822 823 823 824 824 825 826 826
828 828 829 829 830 829 829 829 829 830 830 830 830 830 830 830 829 829 828 827 827 826 826 825 824 823 822 822 822 821 821 820 819 818 817 816 816 816 816 817 817 817 819 819 818 817 817 817 817 817 817 817 817 818 819 820 820 820 822 825 825 826 826 824 821 820 819 819 819 819 819 819 820 820 821 822 823 823 823 823 824 825 825 826 827
829 829 830 830 830 830 830 830 830 830 830 830 831 830 830 830 829 828 828 827 826 826 826 825 824 823 823 823 822 822 821 820 819 817 816 816 815 816 817 817 817 818 819 819 818 818 817 817 817 817 817 816 817 818 820 820 820 820 822 824 824 825 825 823 820 819 819 819 819 819 819 819 820 820 821 822 823 823 823 824 825 825 826 826 827
829 830 830 831 830 831 831 831 831 831 831 831 831 830 830 829 829 828 827 827 826 826 826 825 824 823 823 823 823 822 821 820 819 817 816 816 816 817 817 818 818 818 818 819 819 818 818 818 817 817 817 816 816 818 819 820 821 821 821 822 823 823 823 822 820 819 819 819 819 819 819 819 819 820 821 822 823 824 824 825 825 826 827 827 828
830 831 831 831 831 831 831 831 831 831 831 831 830 830 829 829 828 828 827 827 827 827 826 826 825 824 824 824 823 822 820 819 819 818 817 817 817 817 817 817 818 818 818 819 819 818 818 818 818 818 817 817 816 817 818 820 820 820 821 821 821 822 822 820 819 819 819 819 819 820 820 820 820 820 821 823 823 824 824 825 826 826 827 828 828
831 831 832 832 832 832 832 832 831 831 831 830 830 829 829 829 828 828 828 828 828 827 827 826 825 825 825 824 823 822 821 819 819 818 818 818 818 817 817 817 818 818 819 819 819 819 818 817 818 818 818 818 817 817 818 819 820 820 820 820 821 821 821 820 819 818 818 819 819 820 820 820 820 820 821 823 824 824 825 825 826 826 827 828 828
831 832 832 832 832 833 832 832 832 832 831 831 831 830 830 829 829 829 829 828 828 828 827 826 826 825 825 824 823 822 821 820 819 819 819 819 818 818 817 818 818 819 819 819 819 818 818 818 818 818 818 818 817 817 818 818 819 820 820 820 820 820 820 820 818 818 818 819 819 820 820 820 820 820 821 823 824 824 825 826 826 827 827 828 828
831 832 832 832 832 833 833 832 832 832 832 832 831 831 830 830 830 829 829 829 828 828 827 826 826 825 825 824 823 822 821 820 820 819 820 819 819 818 818 818 819 819 819 819 819 819 819 818 818 818 818 818 818 818 818 818 819 819 819 819 819 819 820 820 818 817 818 818 819 820 820 820 820 820 821 822 824 824 825 826 826 827 827 828 828
832 833 833 833 833 833 833 833 833 833 833 832 832 831 830 830 830 829 829 829 828 828 827 827 826 825 825 824 824 823 822 821 820 820 820 820 819 819 818 819 819 819 819 819 819 819 819 818 818 818 818 818 818 818 818 819 819 819 819 818 818 818 819 820 819 817 818 818 819 820 819 820 820 820 821 822 823 824 825 826 826 827 828 828 828
833 833 833 834 834 835 834 834 834 834 834 833 833 832 831 831 830 830 829 829 829 828 828 827 826 826 825 824 824 823 822 821 820 821 820 820 819 819 819 819 819 819 820 820 819 819 819 818 818 819 818 819 818 818 819 819 819 819 819 818 818 818 818 819 818 816 817 818 819 819 819 819 819 820 821 821 822 824 825 825 826 827 828 828 829
833 833 834 834 834 835 835 835 834 834 834 833 833 832 832 831 831 830 829 829 829 829 828 828 827 826 825 824 824 823 822 821 821 821 820 820 820 819 819 819 819 819 819 819 819 819 819 819 818 819 818 818 818 818 819 819 819 819 819 818 818 818 818 818 817 816 817 817 818 818 818 818 819 820 821 821 822 823 824 825 826 827 827 828 829
834 834 834 835 835 835 835 835 834 834 834 833 833 832 832 831 831 831 830 830 829 829 828 827 827 826 825 824 823 823 822 822 822 821 820 820 820 820 819 819 819 819 819 819 819 819 819 819 818 819 818 818 818 818 818 818 818 818 819 818 818 818 818 818 817 817 817 818 818 817 818 818 819 819 820 821 821 822 823 825 826 826 827 828 829
836 836 836 836 836 836 835 835 835 834 834 834 833 833 832 832 832 831 830 830 829 829 828 828 827 826 825 824 824 824 823 823 822 821 821 821 820 820 819 819 819 818 819 819 819 819 818 818 818 818 818 818 818 818 818 818 818 818 818 818 818 818 818 818 817 817 817 817 817 817 817 818 818 819 819 820 821 822 823 825 826 826 827 828 829
837 837 838 837 837 837 836 836 836 835 835 835 834 834 833 833 832 832 831 830 830 829 829 828 828 827 826 825 825 824 823 823 822 821 820 820 820 819 819 819 818 818 818 818 818 818 818 818 818 818 818 817 818 818 819 819 818 818 818 818 818 818 818 818 818 817 817 817 817 817 817 817 818 818 819 820 822 823 824 825 826 827 827 828 829
838 838 838 838 838 838 838 838 837 837 837 836 836 835 834 834 833 832 832 831 831 830 830 829 828 828 826 826 825 824 823 823 822 821 820 820 820 819 819 818 818 818 818 818 818 817 817 817 817 817 817 817 818 818 818 819 818 818 818 818 818 818 818 818 817 816 816 816 816 816 816 817 817 818 819 820 821 822 823 824 826 827 828 829 830
838 839 839 839 839 840 840 839 838 838 838 837 837 836 835 835 834 833 833 832 832 832 831 830 829 828 827 826 825 824 824 823 822 821 821 820 820 819 819 819 819 818 818 818 818 818 817 817 817 816 817 817 818 818 818 818 818 818 818 818 818 818 818 818 817 816 816 816 815 815 816 816 817 818 818 819 821 821 822 824 825 827 828 830 831
838 839 840 841 841 841 841 840 839 839 838 838 838 837 836 836 835 834 834 833 833 832 831 830 829 829 828 827 826 825 824 823 822 821 821 820 819 819 819 819 818 818 818 818 818 818 818 817 817 817 817 817 817 817 817 817 817 817 817 817 817 817 818 817 816 816 815 815 815 815 815 816 817 817 818 819 820 821 822 824 825 826 829 831 832
839 840 841 842 842 841 841 840 840 839 839 839 839 838 838 837 836 836 835 834 833 833 832 831 830 829 828 827 826 825 824 823 822 822 821 820 820 819 818 818 818 818 818 818 818 818 818 817 817 817 817 817 817 817 817 817 816 816 816 816 817 817 817 816 816 815 815 815 814 815 815 815 816 817 818 819 820 821 822 823 825 826 828 831 833
840 841 842 842 842 841 841 841 840 840 840 840 840 839 839 838 838 837 836 835 834 833 833 832 831 830 829 828 827 826 825 824 823 822 821 820 820 819 818 818 818 818 818 818 818 817 817 817 817 817 816 816 816 816 816 816 816 816 816 816 816 816 816 815 815 814 814 814 814 814 815 815 816 817 818 819 819 820 821 823 824 825 826 829 832
840 841 842 842 842 841 841 841 841 841 841 840 840 840 840 839 839 838 837 836 835 834 833 833 832 831 830 829 828 826 825 824 823 823 822 821 820 819 818 818 818 818 818 818 817 817 817 817 817 816 816 816 815 815 815 815 815 815 815 815 815 815 814 814 813 813 813 812 812 813 814 815 815 816 818 818 819 819 820 822 823 824 826 828 831
841 841 842 842 842 842 842 841 841 841 841 841 841 841 840 840 839 839 838 837 836 835 834 833 832 831 830 829 828 827 826 825 824 823 822 821 820 819 819 818 818 818 818 818 817 817 817 816 816 816 815 815 815 814 814 814 814 813 813 813 813 813 813 813 812 812 811 811 810 811 813 814 814 815 816 818 819 819 820 821 823 824 825 827 829
842 842 842 843 843 843 842 842 842 842 842 842 841 841 841 840 840 839 838 837 836 835 834 833 832 831 830 830 829 828 827 825 825 824 823 822 821 820 819 818 818 817 817 817 816 816 816 816 816 815 815 814 814 813 813 813 812 812 812 812 812 812 812 811 811 810 810 810 810 810 812 812 812 814 815 817 818 819 820 821 822 823 824 826 828
842 843 843 843 843 843 843 843 842 842 842 842 842 842 842 841 841 840 839 837 836 835 834 833 832 831 830 830 829 828 827 826 826 825 824 822 821 820 819 818 817 817 817 817 816 815 815 815 815 815 814 814 813 813 812 812 812 811 811 811 811 811 810 810 810 809 809 809 809 809 810 811 811 813 815 817 818 819 819 820 821 822 823 825 826
842 843 843 843 843 844 843 843 843 843 843 843 843 842 842 841 841 840 839 838 836 835 834 833 832 831 830 830 829 828 828 827 826 826 824 823 821 820 819 818 817 817 817 816 816 815 815 815 814 814 814 813 813 813 812 811 811 810 810 810 810 809 809 809 809 808 808 808 808 808 809 810 811 813 814 816 818 818 818 819 820 821 822 824 825
842 842 843 843 844 844 844 844 844 844 843 843 843 842 842 842 841 840 839 838 836 835 834 833 832 831 830 830 830 829 828 827 826 826 824 823 821 820 819 818 817 816 816 816 815 815 814 814 814 813 813 813 812 812 812 811 811 810 810 810 809 809 808 808 807 807 807 808 808 808 809 809 810 812 813 815 817 817 817 818 819 821 822 823 824
842 842 843 843 844 844 844 844 844 844 843 843 843 843 843 842 842 841 840 838 837 836 834 833 832 831 831 830 830 829 828 827 826 826 825 823 822 820 819 818 817 816 816 816 815 814 814 814 813 813 812 812 811 811 811 811 810 809 809 809 808 808 807 806 806 806 806 807 807 808 808 808 810 811 812 814 815 816 816 817 818 820 820 821 823
842 843 843 843 844 844 844 845 844 844 844 844 843 843 843 843 842 841 840 839 837 836 835 833 833 832 831 830 830 829 828 828 826 826 825 823 822 820 819 818 817 816 816 815 814 814 813 813 813 812 812 811 811 810 810 810 809 809 808 808 807 807 806 805 805 805 805 806 806 807 807 808 809 810 811 812 814 815 815 815 817 818 819 819 821
842 843 843 843 844 844 844 845 844 845 844 844 843 843 843 843 842 841 840 839 838 836 835 834 833 832 832 831 830 829 828 827 826 826 825 823 822 821 820 819 818 816 816 815 814 814 813 813 813 812 811 811 810 810 809 809 808 807 807 806 806 806 805 805 805 805 805 805 805 806 807 807 808 808 809 811 813 814 815 815 816 817 818 819 820
843 844 844 844 844 844 844 844 844 845 844 844 844 843 843 843 842 841 840 839 838 837 836 835 834 833 832 831 830 829 828 827 826 825 824 823 822 821 820 819 818 817 816 815 814 814 813 813 813 812 811 811 810 809 809 808 808 807 806 805 805 805 805 805 804 804 804 804 804 805 805 806 806 807 808 810 811 813 814 814 815 816 817 818 819
842 843 845 845 844 844 844 844 844 844 844 844 844 843 843 842 842 841 840 839 838 837 836 835 834 833 832 831 830 829 828 827 826 825 824 823 822 822 821 820 819 817 816 815 814 814 813 813 813 812 811 811 810 809 809 808 807 806 805 805 804 804 804 805 805 804 803 803 803 804 804 805 805 806 807 808 810 812 812 813 813 814 815 817 818
841 842 843 843 844 844 843 843 844 844 844 843 843 842 842 842 841 841 840 839 838 837 837 836 835 834 832 832 831 829 828 827 826 826 825 824 823 822 821 820 819 818 817 816 815 815 814 813 812 812 811 810 810 809 808 808 807 806 805 805 804 803 802 803 804 804 803 802 802 803 804 804 804 805 806 806 808 810 811 811 812 813 814 815 816
840 841 840 840 842 844 843 843 843 843 843 842 842 842 841 841 841 840 840 839 839 838 837 836 835 834 833 832 831 830 829 828 827 826 825 824 823 822 822 821 820 819 818 817 816 815 814 814 812 811 810 810 809 809 808 808 807 806 805 804 803 802 801 801 803 804 802 802 802 802 803 803 804 805 806 806 807 809 810 811 811 812 813 814 814
838 838 838 838 840 842 842 842 842 842 842 842 842 842 841 840 840 840 839 839 838 838 837 837 835 834 833 832 831 830 829 828 827 826 825 825 824 823 822 821 820 819 818 817 816 815 814 814 812 811 810 809 809 809 809 808 807 806 805 803 802 801 801 801 802 803 802 801 801 801 801 802 803 805 806 806 808 809 810 810 810 811 811 812 813
836 836 837 837 839 840 840 841 841 840 841 841 841 841 840 840 839 839 839 838 838 838 837 837 836 834 833 832 831 830 829 828 827 826 825 825 824 823 822 821 820 819 818 817 816 815 814 814 813 812 810 809 808 808 809 808 807 807 805 803 801 801 800 800 801 802 802 801 800 800 800 801 802 804 805 806 807 809 809 809 809 809 809 810 810
834 834 835 836 837 838 838 839 839 839 840 840 840 840 839 839 838 838 838 838 838 837 837 836 836 834 833 832 831 831 830 829 828 826 826 825 824 824 823 822 821 820 819 817 816 815 814 814 813 812 811 809 808 808 808 808 808 807 805 802 800 800 801 799 799 800 801 800 800 800 800 801 802 803 803 804 806 807 808 808 808 808 808 808 809
832 832 833 834 835 835 836 837 837 838 838 838 838 838 838 838 837 837 837 837 837 836 835 835 835 834 833 832 831 831 830 829 828 827 826 825 825 824 823 822 821 820 819 818 817 816 815 814 813 813 812 811 809 808 807 807 808 807 806 804 801 801 800 800 800 801 800 799 799 799 800 802 802 802 802 803 805 806 806 807 807 807 806 806 807
830 831 831 832 833 833 834 835 836 836 836 836 837 837 837 837 837 836 836 836 836 835 834 835 835 834 834 832 831 831 829 829 828 827 826 825 825 824 823 823 822 821 820 818 818 817 816 815 814 813 812 812 810 808 807 807 807 806 806 805 804 804 802 801 802 802 800 798 798 799 800 801 802 803 803 802 803 804 804 805 806 806 805 805 806
828 829 830 830 831 832 833 834 834 835 835 835 835 836 835 835 835 835 835 835 835 835 834 834 834 834 833 832 831 830 829 828 828 827 826 826 825 824 824 823 822 821 820 819 819 818 816 816 815 814 813 812 811 809 808 807 806 806 806 805 804 804 804 803 803 803 801 799 797 798 799 801 802 803 803 802 802 802 802 804 805 804 804 804 804
826 827 828 829 829 830 831 832 833 833 833 834 834 834 834 834 834 834 834 834 834 834 834 834 834 833 833 832 831 830 829 828 828 827 826 826 825 824 824 823 822 822 821 820 819 818 817 816 816 815 814 813 812 811 809 808 807 807 806 805 804 804 804 804 803 803 803 800 798 798 799 800 801 802 802 803 803 802 801 802 803 803 802 803 803
825 826 826 827 828 828 829 830 831 831 831 832 832 832 833 833 833 833 833 833 833 833 833 833 833 833 832 832 831 830 829 828 828 827 826 825 825 825 824 823 823 822 821 821 820 819 818 817 816 815 815 814 813 812 811 809 809 808 807 806 805 804 803 803 803 802 802 802 800 799 799 800 800 800 801 803 803 801 800 799 800 801 801 801 801
823 824 825 825 826 827 827 828 829 829 830 830 831 831 831 832 831 832 831 832 832 832 832 832 832 832 831 831 831 830 829 828 828 827 826 825 825 825 824 824 823 823 822 821 820 819 818 817 817 816 815 814 813 813 812 811 809 809 808 807 805 804 803 802 803 802 802 801 800 799 801 802 800 798 798 801 801 799 797 796 797 798 799 799 799
822 823 824 824 825 825 825 826 827 827 828 828 829 829 830 830 830 830 830 830 831 831 831 831 832 832 831 831 831 830 829 829 828 827 826 826 825 825 824 824 824 823 823 821 820 819 818 817 817 816 815 815 814 813 812 811 810 809 808 807 806 805 803 803 803 803 802 800 799 799 800 800 800 797 795 797 798 796 795 794 794 795 796 796 796